Home > Weather > Florianópolis > Past weeks

Flag for Brazil Weather for the Past 2 Weeks in Florianópolis, Santa Catarina, Brazil

Now
77 °F

Scattered showers. Partly sunny.


Feels Like: 78 °F
Forecast: N/A
Wind: 2 mph from Northwest

Location: Florianopolis Aeroporto

Current Time: Feb 9, 2016 at 7:29:04 PM

Latest Report: Feb 9, 2016 at 7:00 PM


Visibility: N/A

Pressure: 29.83 "Hg

Humidity: 94%

Dew point: 75 °F

Location of FlorianópolisLocation

Historic Weather in Florianópolis — Graph

°F

Florianópolis Temperature Yesterday

Maximum temperature yesterday: 86 °F (at 1:00 PM)
Minimum temperature yesterday: 73 °F (at 12:00 AM)
Average temperature yesterday: 79 °F

High & Low Weather Summary for the Past Weeks

 TemperatureHumidityPressure
High91 °F (Jan 26, 1:00 PM)100% (Jan 28, 12:00 AM)30.09 "Hg (Jan 28, 12:00 AM)
Low68 °F (Jan 28, 5:00 AM)49% (Jan 26, 2:00 PM)29.71 "Hg (Jan 25, 6:00 PM)
Average76 °F87%29.94 "Hg
* Reported Jan 25 6:00 PM — Feb 9 6:00 PM, Florianópolis, Weather by CustomWeather, © 2016

Note: Actual official high and low records may vary slightly from our data, if they occured in-between our weather recording intervals... More about our weather records

Advertising

Florianópolis Weather History for the Previous 24 Hours

 ConditionsComfort  
Time TempWeatherWind HumidityBarometerVisibility
6:00 PM
Tue, Feb 9
79 °FThunderstorms. Partly sunny.12 mph89%29.89 "Hg3 mi
5:03 PM79 °FThunderstorms. Partly sunny.17 mph84%29.86 "Hg1 mi
5:00 PM84 °FScattered showers. Partly sunny.20 mph74%29.86 "HgN/A
4:00 PM86 °FPartly sunny.7 mph79%29.83 "HgN/A
3:00 PM86 °FPartly sunny.9 mph79%29.83 "HgN/A
2:00 PM90 °FPartly sunny.7 mph71%29.83 "HgN/A
1:00 PM88 °FPartly sunny.7 mph70%29.86 "HgN/A
12:00 PM86 °FPartly sunny.12 mph75%29.86 "HgN/A
11:00 AM86 °FScattered clouds.14 mph75%29.89 "HgN/A
10:00 AM82 °FScattered clouds.15 mph84%29.89 "HgN/A
9:00 AM81 °FScattered clouds.12 mph89%29.89 "HgN/A
8:00 AM81 °FPartly sunny.14 mph84%29.89 "HgN/A
7:00 AM79 °FPartly sunny.13 mph89%29.89 "HgN/A
6:00 AM79 °FPartly cloudy.13 mph89%29.89 "HgN/A
5:00 AM79 °FPassing clouds.9 mph89%29.89 "HgN/A
4:00 AM79 °FPassing clouds.12 mph89%29.92 "HgN/A
3:00 AM79 °FPassing clouds.10 mph89%29.92 "HgN/A
2:00 AM81 °FPassing clouds.14 mph89%29.95 "HgN/A
1:00 AM81 °FPassing clouds.10 mph89%29.95 "HgN/A
12:00 AM81 °FPassing clouds.15 mph89%29.98 "HgN/A
11:00 PM
Mon, Feb 8
81 °FPassing clouds.14 mph89%29.95 "HgN/A
10:00 PM81 °FPassing clouds.13 mph84%29.92 "HgN/A
9:00 PM81 °FPassing clouds.10 mph84%29.92 "HgN/A
8:00 PM81 °FScattered clouds.10 mph84%29.89 "HgN/A
7:00 PM82 °FScattered clouds.15 mph79%29.89 "HgN/A
Weather by CustomWeather, © 2016

See weather overviewHow to use our weather pages